Regional Weather Roundup
Issued by NWS

Home | Current Version | Previous Version | Text Only | Print | Product List | Glossary On
Versions: 1 2 3 4 5 6 7 8 9 10 11 12 13 14 15 16 17 18 19 20 21 22 23 24 25 26 27 28 29 30 31 32 33 34 35 36 37 38 39 40 41 42 43 44 45 46 47 48 49 50
000
ASUS44 KBMX 252310
RWRAL

ALABAMA REGIONAL WEATHER ROUNDUP
NATIONAL WEATHER SERVICE BIRMINGHAM AL
500 PM CST TUE NOV 25 2014

NOTE: "FAIR" INDICATES FEW OR NO CLOUDS BELOW 12,000 FEET
WITH NO SIGNIFICANT WEATHER AND/OR OBSTRUCTIONS TO VISIBILITY.

THE REMARK "TC" DENOTES TEMPERATURE IN DEGREES CELSIUS.

ALZ001>011-014-016>018-020-260000-
NORTH ALABAMA

CITY           SKY/WX    TMP DP  RH WIND       PRES   REMARKS
MUSCLE SHOALS    N/A     47  28  47 NW8       30.13R
HUNTSVILLE     CLOUDY    50  32  50 NW7       30.07F
DECATUR        CLOUDY    49  29  46 NW9       30.09F
HALEYVILLE     FAIR      45  31  58 CALM      30.14R
GADSDEN        MOCLDY    52  28  40 NW7       30.05S
$$

ALZ012-013-022-023-030>036-040>044-260000-
WEST CENTRAL ALABAMA

CITY           SKY/WX    TMP DP  RH WIND       PRES   REMARKS
TUSCALOOSA     CLOUDY    52  28  39 NW6       30.14R
$$

ALZ015-024>027-033>036-040>044-260000-
CENTRAL ALABAMA

CITY           SKY/WX    TMP DP  RH WIND       PRES   REMARKS
BIRMINGHAM     CLOUDY    54  29  38 NW7       30.10R
MONTGOMERY     CLOUDY    57  34  41 NW3       30.07R
SHELBY CO ARPT MOCLDY    55  31  39 NW5       30.10R
MAXWELL AFB    CLOUDY    58  35  42 NW5       30.06R
GREENVILLE     CLOUDY    56  34  43 W5        30.07
$$

ALZ019-021-028-029-037-038-045>048-260000-
EAST CENTRAL ALABAMA

CITY           SKY/WX    TMP DP  RH WIND       PRES   REMARKS
ANNISTON       MOCLDY    56  26  31 NW6       30.05R
ALEXANDER CITY CLOUDY    57  36  46 CALM      30.08R
AUBURN         CLOUDY    50  36  57 S6        30.09R
$$

ALZ051>064-260000-
SOUTHWEST ALABAMA

CITY           SKY/WX    TMP DP  RH WIND       PRES   REMARKS
MOBILE         CLOUDY    53  36  52 NW8       30.12R
BROOKLEY FIELD CLOUDY    57  35  43 NW13      30.11R
EVERGREEN      CLOUDY    56  35  45 NW6       30.08S
$$

ALZ049-050-065>069-260000-
SOUTHEAST ALABAMA

CITY           SKY/WX    TMP DP  RH WIND       PRES   REMARKS
DOTHAN         LGT RAIN  49  44  83 NE7       30.08S
OZARK          DRIZZLE   50  46  87 E2        30.07R
TROY           CLOUDY    53  44  71 NW3       30.07R
EUFAULA        LGT RAIN  51  49  92 CALM      30.04R
$$


USA.gov is the U.S. government's official web portal to all federal, state and local government web resources and services.